When you browse on this site, cookies collect data to enhance your experience and personalize the content and advertising you see.
Visit our Privacy Policy to learn more. By continuing to use the site, you agree to this use of cookies and data.
  • In Austria
  • List of Countries
  • For 7 days
  • Water Temperature
  • Weather Map
  • News
  • Weather Widgets
  • user-avatar
    Login

    Hourly Weather Krasnyy Lug

    Today, 22 February, Saturday

    Time Temperature Precipitation Wind Pressure Humidity
    00:00 -1°C° 0 mm 3 mps 744 mmHg 90%
    01:00 -1°C° 0 mm 3 mps 744 mmHg 90%
    02:00 -1°C° 0 mm 3 mps 744 mmHg 91%
    03:00 -1°C° 0 mm 3 mps 744 mmHg 90%
    04:00 -1°C° 0 mm 3 mps 744 mmHg 89%
    05:00 -2°C° 0 mm 4 mps 744 mmHg 89%
    06:00 -2°C° 0 mm 4 mps 744 mmHg 90%
    07:00 -2°C° 0 mm 4 mps 744 mmHg 90%
    08:00 -1°C° 0 mm 4 mps 745 mmHg 91%
    09:00 -1°C° 0 mm 4 mps 744 mmHg 88%
    10:00 -1°C° 0 mm 5 mps 744 mmHg 85%
    11:00 0°C° 0 mm 5 mps 743 mmHg 81%
    12:00 0°C° 0 mm 5 mps 743 mmHg 79%
    13:00 0°C° 0 mm 5 mps 743 mmHg 77%
    14:00 -1°C° 0 mm 6 mps 742 mmHg 75%
    15:00 -1°C° 0 mm 6 mps 741 mmHg 75%
    16:00 -1°C° 0 mm 6 mps 740 mmHg 76%
    17:00 -1°C° 0 mm 6 mps 739 mmHg 76%
    18:00 -1°C° 0 mm 7 mps 738 mmHg 77%
    19:00 -2°C° 0 mm 7 mps 737 mmHg 79%
    20:00 -2°C° 0 mm 8 mps 736 mmHg 80%
    21:00 -2°C° 1 mm 8 mps 735 mmHg 85%
    22:00 -3°C° 1 mm 9 mps 733 mmHg 90%
    23:00 -3°C° 1 mm 9 mps 732 mmHg 95%

    Tomorrow, 23 February, Sunday

    Time Temperature Precipitation Wind Pressure Humidity
    00:00 -3°C° 1.2 mm 9 mps 731 mmHg 95%
    01:00 -2°C° 1.2 mm 8 mps 730 mmHg 95%
    02:00 -2°C° 1.2 mm 8 mps 729 mmHg 95%
    03:00 -1°C° 0.9 mm 8 mps 728 mmHg 95%
    04:00 -1°C° 0.9 mm 7 mps 727 mmHg 94%
    05:00 0°C° 0.9 mm 7 mps 726 mmHg 94%
    06:00 -1°C° 0.4 mm 6 mps 727 mmHg 90%
    07:00 0°C° 0.4 mm 5 mps 727 mmHg 85%
    08:00 0°C° 0.4 mm 4 mps 727 mmHg 81%
    09:00 0°C° 0 mm 5 mps 727 mmHg 78%
    10:00 0°C° 0 mm 5 mps 727 mmHg 74%
    11:00 +1°C° 0 mm 5 mps 727 mmHg 71%
    12:00 +1°C° 0.1 mm 5 mps 727 mmHg 70%
    13:00 +1°C° 0.1 mm 5 mps 727 mmHg 69%
    14:00 +1°C° 0.1 mm 5 mps 727 mmHg 67%
    15:00 0°C° 0.1 mm 5 mps 726 mmHg 74%
    16:00 0°C° 0.1 mm 5 mps 726 mmHg 81%
    17:00 -1°C° 0.1 mm 5 mps 726 mmHg 88%
    18:00 -1°C° 0.1 mm 5 mps 725 mmHg 90%
    19:00 -2°C° 0.1 mm 6 mps 725 mmHg 93%
    20:00 -2°C° 0.1 mm 6 mps 725 mmHg 95%
    21:00 -1°C° 0.1 mm 5 mps 725 mmHg 93%
    22:00 -1°C° 0.1 mm 5 mps 724 mmHg 90%
    23:00 -1°C° 0.1 mm 5 mps 724 mmHg 88%

    Day after tomorrow, 24 February, Monday

    Time Temperature Precipitation Wind Pressure Humidity
    00:00 -1°C° 0.1 mm 4 mps 724 mmHg 91%
    01:00 -1°C° 0.1 mm 4 mps 724 mmHg 93%
    02:00 -2°C° 0.1 mm 4 mps 724 mmHg 96%
    03:00 -2°C° 0.1 mm 4 mps 724 mmHg 96%
    04:00 -1°C° 0.1 mm 3 mps 724 mmHg 96%
    05:00 -1°C° 0.1 mm 3 mps 724 mmHg 96%
    06:00 -1°C° 0.1 mm 3 mps 725 mmHg 94%
    07:00 -1°C° 0.1 mm 3 mps 725 mmHg 91%
    08:00 -1°C° 0.1 mm 3 mps 725 mmHg 89%
    09:00 0°C° 0.1 mm 3 mps 726 mmHg 85%
    10:00 -1°C° 0.1 mm 4 mps 726 mmHg 81%
    11:00 0°C° 0.1 mm 4 mps 727 mmHg 76%
    12:00 0°C° 0.1 mm 5 mps 728 mmHg 72%
    13:00 0°C° 0.1 mm 5 mps 728 mmHg 68%
    14:00 -1°C° 0.1 mm 6 mps 729 mmHg 63%
    15:00 -1°C° 0 mm 5 mps 729 mmHg 65%
    16:00 -1°C° 0 mm 5 mps 730 mmHg 67%
    17:00 -2°C° 0 mm 4 mps 731 mmHg 69%
    18:00 -2°C° 0 mm 4 mps 731 mmHg 70%
    19:00 -3°C° 0 mm 4 mps 732 mmHg 71%
    20:00 -2°C° 0 mm 3 mps 733 mmHg 73%
    21:00 -2°C° 0 mm 3 mps 733 mmHg 73%
    22:00 -4°C° 0 mm 3 mps 733 mmHg 74%
    23:00 -4°C° 0 mm 3 mps 734 mmHg 74%

    25 February, Tuesday

    Time Temperature Precipitation Wind Pressure Humidity
    00:00 -4°C° 0 mm 3 mps 734 mmHg 75%
    01:00 -4°C° 0 mm 3 mps 734 mmHg 76%
    02:00 -4°C° 0 mm 3 mps 734 mmHg 78%
    03:00 -4°C° 0 mm 3 mps 734 mmHg 78%
    04:00 -4°C° 0 mm 3 mps 734 mmHg 78%
    05:00 -3°C° 0 mm 2 mps 734 mmHg 79%
    06:00 -3°C° 0 mm 2 mps 734 mmHg 79%
    07:00 -3°C° 0 mm 2 mps 733 mmHg 80%
    08:00 -3°C° 0 mm 2 mps 733 mmHg 80%
    09:00 -2°C° 0 mm 2 mps 733 mmHg 74%
    10:00 -1°C° 0 mm 3 mps 732 mmHg 68%
    11:00 0°C° 0 mm 3 mps 732 mmHg 61%
    12:00 0°C° 0.2 mm 3 mps 731 mmHg 72%
    13:00 0°C° 0.2 mm 3 mps 731 mmHg 83%
    14:00 -2°C° 0.2 mm 4 mps 730 mmHg 93%
    15:00 -2°C° 0.1 mm 4 mps 729 mmHg 94%
    16:00 -2°C° 0.1 mm 4 mps 729 mmHg 95%
    17:00 -2°C° 0.1 mm 4 mps 728 mmHg 95%
    18:00 -2°C° 0.3 mm 4 mps 727 mmHg 96%
    19:00 -1°C° 0.3 mm 4 mps 727 mmHg 96%
    20:00 -1°C° 0.3 mm 4 mps 726 mmHg 96%
    21:00 -1°C° 0.3 mm 4 mps 726 mmHg 97%
    22:00 +1°C° 0.3 mm 3 mps 725 mmHg 97%
    23:00 +1°C° 0.3 mm 3 mps 725 mmHg 97%

    26 February, Wednesday

    Time Temperature Precipitation Wind Pressure Humidity
    00:00 +1°C° 0.4 mm 3 mps 724 mmHg 97%
    01:00 +1°C° 0.4 mm 3 mps 724 mmHg 97%
    02:00 +1°C° 0.4 mm 3 mps 724 mmHg 97%
    03:00 +2°C° 0.2 mm 2 mps 723 mmHg 97%
    04:00 +1°C° 0.2 mm 2 mps 723 mmHg 97%
    05:00 +1°C° 0.2 mm 2 mps 722 mmHg 98%
    06:00 0°C° 1.3 mm 3 mps 722 mmHg 97%
    07:00 -1°C° 1.3 mm 4 mps 722 mmHg 96%
    08:00 -1°C° 1.3 mm 4 mps 722 mmHg 95%
    09:00 -1°C° 0.1 mm 5 mps 723 mmHg 90%
    10:00 -1°C° 0.1 mm 5 mps 723 mmHg 84%
    11:00 0°C° 0.1 mm 5 mps 724 mmHg 78%
    12:00 0°C° 0 mm 5 mps 724 mmHg 79%
    13:00 0°C° 0 mm 4 mps 725 mmHg 79%
    14:00 0°C° 0 mm 4 mps 725 mmHg 79%
    15:00 0°C° 0 mm 4 mps 725 mmHg 80%
    16:00 0°C° 0 mm 4 mps 725 mmHg 80%
    17:00 +1°C° 0 mm 3 mps 726 mmHg 81%
    18:00 0°C° 0 mm 3 mps 726 mmHg 82%
    19:00 +1°C° 0 mm 2 mps 726 mmHg 83%
    20:00 -1°C° 0 mm 2 mps 727 mmHg 84%
    21:00 -1°C° 0 mm 2 mps 727 mmHg 86%
    22:00 -2°C° 0 mm 2 mps 727 mmHg 89%
    23:00 -2°C° 0 mm 2 mps 728 mmHg 91%

    27 February, Thursday

    Time Temperature Precipitation Wind Pressure Humidity
    00:00 -2°C° 0 mm 2 mps 727 mmHg 90%
    01:00 -2°C° 0 mm 2 mps 727 mmHg 90%
    02:00 -2°C° 0 mm 2 mps 727 mmHg 89%
    03:00 -2°C° 0 mm 2 mps 727 mmHg 89%
    04:00 -2°C° 0 mm 2 mps 727 mmHg 88%
    05:00 -2°C° 0 mm 2 mps 726 mmHg 88%
    06:00 -1°C° 0 mm 2 mps 726 mmHg 87%
    07:00 -1°C° 0 mm 2 mps 726 mmHg 86%
    08:00 +1°C° 0 mm 2 mps 726 mmHg 85%
    09:00 +1°C° 0.2 mm 2 mps 726 mmHg 87%
    10:00 0°C° 0.2 mm 3 mps 725 mmHg 89%
    11:00 +1°C° 0.2 mm 3 mps 725 mmHg 91%
    12:00 0°C° 0.6 mm 3 mps 725 mmHg 93%
    13:00 +1°C° 0.6 mm 2 mps 724 mmHg 95%
    14:00 +1°C° 0.6 mm 2 mps 724 mmHg 98%
    15:00 +1°C° 0.4 mm 2 mps 724 mmHg 97%
    16:00 +1°C° 0.4 mm 2 mps 724 mmHg 96%
    17:00 0°C° 0.4 mm 3 mps 724 mmHg 95%
    18:00 0°C° 0 mm 3 mps 724 mmHg 93%
    19:00 -1°C° 0 mm 3 mps 724 mmHg 90%
    20:00 -1°C° 0 mm 3 mps 725 mmHg 88%
    21:00 -2°C° 0.1 mm 3 mps 725 mmHg 89%
    22:00 -3°C° 0.1 mm 4 mps 726 mmHg 90%
    23:00 -4°C° 0.1 mm 5 mps 727 mmHg 90%
    Show more